Weather History for KRIL - October, 2013

Change the Weather History Date:

Thursday, October 31, 2013

  Actual Average Record
Temperature  
Mean Temperature 38 °F 43 °F  
Max Temperature 42 °F 57 °F 78 °F (1950)
Min Temperature 34 °F 28 °F 7 °F (1991)
Degree Days  
Heating Degree Days 27 22  
Month to date heating degree days 567 499  
Since 1 July heating degree days 678 644  
Cooling Degree Days 0 0  
Month to date cooling degree days 0 0  
Year to date cooling degree days 798 541  
Moisture  
Dew Point 33 °F    
Average Humidity 75    
Maximum Humidity 92    
Minimum Humidity 57    
Precipitation  
Precipitation T in 0.07 in 0.67 in (1992)
Month to date precipitation 2.55 1.89  
Year to date precipitation 10.05 12.36  
Sea Level Pressure  
Sea Level Pressure 30.09 in    
Wind  
Wind Speed 3 mph (West)    
Max Wind Speed 15 mph    
Max Gust Speed 18 mph    
Visibility 10 miles    
Events Rain    
T = Trace of Precipitation, MM = Missing Value Source: NWS Daily Summary

Daily Weather History Graph

Daily Weather History Graph

Search for Another Location

Airport or City:

Trip Planner

Search our weather history database for the weather conditions in past years. The results will help you decide how hot, cold, wet, or windy it might be!

Date:

Astronomy

Oct. 31, 2013 Rise Set
Actual Time 7:38 AM MDT 6:10 PM MDT
Civil Twilight 7:10 AM MDT 6:37 PM MDT
Nautical Twilight 6:38 AM MDT 7:09 PM MDT
Astronomical Twilight 6:07 AM MDT 7:40 PM MDT
Moon 4:31 AM MDT 4:29 PM MDT
Length of Visible Light 11h 27m
Length of Day
10h 31m
Waning Crescent, 9% of the Moon is Illuminated
Oct 31
Waning Crescent
Nov 3
New
Nov 9
First Quarter
Nov 17
Full
Nov 25
Last Quarter

Hourly Weather History & Observations

Time (MDT) Temp. Windchill Dew Point Humidity Pressure Visibility Wind Dir Wind Speed Gust Speed Precip Events Conditions
12:01 AM 35.6 °F - 33.8 °F 93% 30.02 in 10.0 mi Calm Calm - N/A   Overcast
12:53 AM 35.1 °F 27.9 °F 33.1 °F 92% 30.03 in 10.0 mi West 9.2 mph - N/A   Overcast
1:08 AM 35.6 °F 29.2 °F 33.8 °F 93% 30.04 in 10.0 mi West 8.1 mph - 0.01 in Rain Light Rain
1:30 AM 35.6 °F 30.7 °F 33.8 °F 93% 30.04 in 10.0 mi WSW 5.8 mph - 0.01 in   Overcast
1:51 AM 35.6 °F 30.7 °F 33.8 °F 93% 30.04 in 10.0 mi West 5.8 mph - 0.01 in   Overcast
1:53 AM 35.1 °F 31.0 °F 33.1 °F 92% 30.04 in 10.0 mi West 4.6 mph - 0.01 in   Overcast
2:43 AM 35.6 °F - 33.8 °F 93% 30.05 in 10.0 mi Calm Calm - N/A   Overcast
2:53 AM 35.1 °F - 33.1 °F 92% 30.05 in 10.0 mi Calm Calm - N/A   Overcast
3:05 AM 35.6 °F - 33.8 °F 93% 30.05 in 10.0 mi Calm Calm - N/A   Overcast
3:08 AM 35.6 °F - 33.8 °F 93% 30.05 in 10.0 mi Calm Calm - N/A   Overcast
3:36 AM 35.6 °F - 33.8 °F 93% 30.05 in 10.0 mi Calm Calm - N/A   Overcast
3:53 AM 35.1 °F 32.2 °F 33.1 °F 92% 30.05 in 10.0 mi WNW 3.5 mph - N/A   Overcast
4:36 AM 35.6 °F - 33.8 °F 93% 30.06 in 10.0 mi Calm Calm - N/A   Overcast
4:45 AM 35.6 °F - 33.8 °F 93% 30.06 in 10.0 mi Calm Calm - N/A   Overcast
4:53 AM 35.1 °F - 33.1 °F 92% 30.06 in 10.0 mi Calm Calm - N/A   Overcast
5:03 AM 35.6 °F - 33.8 °F 93% 30.06 in 10.0 mi Calm Calm - N/A   Overcast
5:13 AM 35.6 °F - 33.8 °F 93% 30.07 in 10.0 mi Calm Calm - N/A   Overcast
5:53 AM 36.0 °F - 34.0 °F 93% 30.08 in 10.0 mi Calm Calm - N/A   Overcast
6:24 AM 35.6 °F 31.7 °F 32.0 °F 87% 30.08 in 10.0 mi West 4.6 mph - N/A   Overcast
6:53 AM 35.1 °F 32.2 °F 32.0 °F 89% 30.11 in 10.0 mi WNW 3.5 mph - N/A   Overcast
7:09 AM 35.6 °F 32.8 °F 32.0 °F 87% 30.09 in 10.0 mi WNW 3.5 mph - N/A   Overcast
7:53 AM 35.1 °F - 33.1 °F 92% 30.12 in 10.0 mi Calm Calm - N/A   Overcast
8:10 AM 35.6 °F - 33.8 °F 93% 30.11 in 10.0 mi Calm Calm - N/A   Overcast
8:53 AM 35.1 °F - 32.0 °F 89% 30.14 in 10.0 mi Calm Calm - N/A   Overcast
9:15 AM 35.6 °F - 33.8 °F 93% 30.13 in 10.0 mi Calm Calm - N/A   Overcast
9:41 AM 37.4 °F - 33.8 °F 87% 30.14 in 10.0 mi Calm Calm - N/A   Overcast
9:53 AM 37.0 °F - 33.1 °F 86% 30.16 in 10.0 mi Calm Calm - N/A   Overcast
10:43 AM 37.4 °F - 33.8 °F 87% 30.15 in 10.0 mi Calm Calm - N/A   Overcast
10:53 AM 37.0 °F - 33.1 °F 86% 30.17 in 10.0 mi Calm Calm - N/A   Overcast
11:15 AM 37.4 °F - 33.8 °F 87% 30.15 in 10.0 mi Calm Calm - N/A   Overcast
11:53 AM 37.9 °F - 34.0 °F 86% 30.17 in 10.0 mi Calm Calm - N/A   Overcast
12:07 PM 39.2 °F - 33.8 °F 81% 30.15 in 10.0 mi Calm Calm - N/A   Overcast
12:17 PM 39.2 °F - 33.8 °F 81% 30.15 in 10.0 mi Calm Calm - N/A   Overcast
12:53 PM 39.0 °F 35.7 °F 33.1 °F 79% 30.14 in 10.0 mi West 4.6 mph - N/A   Overcast
1:53 PM 39.9 °F 36.7 °F 32.0 °F 73% 30.12 in 10.0 mi West 4.6 mph - N/A   Overcast
2:53 PM 42.1 °F 35.2 °F 28.9 °F 60% 30.10 in 10.0 mi West 12.7 mph - N/A   Overcast
3:53 PM 42.1 °F 36.6 °F 30.0 °F 62% 30.10 in 10.0 mi West 9.2 mph - N/A   Overcast
4:53 PM 42.1 °F 40.2 °F 30.0 °F 62% 30.09 in 10.0 mi South 3.5 mph - N/A   Overcast
5:53 PM 41.0 °F - 30.0 °F 65% 30.09 in 10.0 mi Calm Calm - N/A   Overcast
6:53 PM 39.9 °F 37.8 °F 32.0 °F 73% 30.10 in 10.0 mi ESE 3.5 mph - N/A   Overcast
7:53 PM 39.0 °F 35.7 °F 32.0 °F 76% 30.12 in 10.0 mi East 4.6 mph - N/A   Overcast
8:53 PM 39.0 °F 35.7 °F 33.1 °F 79% 30.12 in 10.0 mi ESE 4.6 mph - N/A   Overcast
9:53 PM 39.0 °F 34.0 °F 33.1 °F 79% 30.12 in 10.0 mi East 6.9 mph - N/A   Overcast
10:53 PM 37.9 °F 32.7 °F 33.1 °F 83% 30.12 in 10.0 mi East 6.9 mph - 0.00 in Rain Light Rain
11:53 PM 37.9 °F 35.5 °F 33.1 °F 83% 30.13 in 10.0 mi SE 3.5 mph - 0.00 in   Overcast